Location: ?????????
(53.2086°N, 54.0693°E)
Time: 06:28:12
(UTC+00:00)

YAOGAN 1 - Pass Details

Date: 08 December 2019
Orbit: 619 x 621 km, 98.0° (Epoch: 19 January)

Event Time Altitude Azimuth Distance (km) Brightness Sun altitude
Rises 15:22:27 0° 187° (S) 2,888 6.1 -27.9°
Reaches altitude 10° 15:24:46 10° 196° (SSW) 1,987 5.3 -28.3°
Maximum altitude 15:28:46 36° 263° (W) 990 4.0 -28.9°
Drops below altitude 10° 15:32:48 10° 331° (NNW) 2,002 5.5 -29.5°
Sets 15:35:09 0° 340° (NNW) 2,914 6.3 -29.8°
